www.pogodaiklimat.ru

Погода и климат >> Архив погоды >> Таиланд >> Саттахип


ПОГОДА в Саттахипе

  • Прогноз погоды в Саттахипе
  • Монитор погоды в Саттахипе

АРХИВ ПОГОДЫ в Саттахипе

Время (UTC), дата Ветер
(напр.,м/с)
 
Видим.   Явления Облачность Т
(С)
Тd
(С)
f
(%)
Тe
(С)
Тes
(С)
Комфортность P
(гПа)
Po
(гПа)
Тmin
(С)
Tmax
(С)
R
(мм)
R24
(мм)
S
(см)
15 12.08 Ю 4 10 км 8/3 600 м
[Cu Sc Ac As Cs]
+26.5 +24.3 88 +37 +37 очень
душно
1008.9 1006.5
18 12.08 Ю 2 10 км 8/3 600 м
[Cu Sc Ac As Cs]
+26.0 +24.6 92 +37 +37 очень
душно
1007.5 1005.1
21 12.08 ЮЗ 2 10 км 8/3 600 м
[Cu Sc Ac As Cs]
+26.0 +24.6 92 +37 +37 очень
душно
1007.2 1004.8
00 13.08 ЮЗ 4 10 км 8/3 600 м
[Cu Sc Ac As Cs]
+27.5 +25.4 88 +40 +41 очень
душно
1008.8 1006.4 +24.0
03 13.08 Ю 6 10 км 8/3 600 м
[Cu Sc Ac As Cs]
+31.6 +25.1 69 +46 +48 опасность
перегрева
1010.3 1007.9
06 13.08 Ю 8 10 км 8/3 600 м
[Cu Sc Ac As Cs]
+32.3 +23.8 61 +44 +46 опасность
перегрева
1009.3 1006.9
09 13.08 ЮЗ 8 10 км 8/3 600 м
[Cu Sc Ac As Cs]
+31.7 +24.3 65 +44 +45 опасность
перегрева
1008.5 1006.1
12 13.08 ЮЗ 3 10 км 9/3 600 м
[Cu Sc Ac As Cs]
+29.4 +24.7 76 +42 +42 опасность
перегрева
1009.0 1006.6 +33.8
15 13.08 ЮЗ 4 10 км 9/3 600 м
[Cu Sc Ac As Cs]
+29.2 +24.5 76 +41 +41 опасность
перегрева
1010.1 1007.7
18 13.08 ЮЗ 4 10 км 9/1 600 м
[Cu Sc Ac As Cs]
+28.9 +24.3 76 +40 +40 очень
душно
1010.0 1007.6
21 13.08 ЮЗ 6 10 км 9/3 600 м
[Cu Sc Ac As Cs]
+28.6 +23.8 75 +39 +39 очень
душно
1009.1 1006.6
00 14.08 ЮЗ 8 10 км 9/3 600 м
[Cu Sc Ac As Cs]
+28.3 +23.5 75 +38 +39 очень
душно
1009.6 1007.2 +27.7
03 14.08 ЮЗ 6 10 км 8/3 600 м
[Cu Sc Ac As Cs]
+31.0 +23.8 66 +43 +45 опасность
перегрева
1010.1 1007.7
06 14.08 ЮЗ 4 10 км {дождь} 9/3 600 м
[Cu Sc Ac As Cs]
+31.5 +24.4 66 +44 +50 опасность
перегрева
1009.1 1006.7 0.2
09 14.08 ЮЗ 4 10 км {дождь} 8/3 600 м
[Cu Sc Ac As Cs]
+30.0 +25.8 78 +45 +47 опасность
перегрева
1008.1 1005.7 0.2
12 14.08 Ю 4 10 км {дождь} 9/3 600 м
[Cu Sc Ac As Cs]
+29.5 +25.2 78 +43 +43 опасность
перегрева
1008.9 1006.5 +33.0 0.4
15 14.08 Ю 2 10 км 8/3 600 м
[Cu Sc Ac As Cs]
+28.0 +25.9 88 +42 +42 опасность
перегрева
1009.2 1006.8
18 14.08 ЮЗ 4 10 км 8/3 600 м
[Cu Sc Ac As Cs]
+28.0 +24.4 81 +39 +39 очень
душно
1008.3 1005.8
21 14.08 Ю 4 10 км 8/3 600 м
[Cu Sc Ac As Cs]
+28.0 +24.4 81 +39 +39 очень
душно
1008.0 1005.6
00 15.08 штиль 0 10 км 8/1 600 м
[Cu hum Ac trans Cs]
+26.5 +24.8 90 +38 +38 очень
душно
1009.8 1007.3 +25.4
03 15.08 ЮЗ 6 10 км 6/1 600 м
[Cu hum Ac lent Cs]
+32.8 +23.0 56 +43 +47 опасность
перегрева
1010.0 1007.6
06 15.08 Ю 8 10 км 8/1 600 м
[Cu hum Ac lent Cs]
+34.0 +24.0 56 +46 +48 опасность
перегрева
1008.5 1006.1
09 15.08 З 8 10 км 8/1 600 м
[Cu hum Ac lent Cs]
+34.0 +23.5 54 +45 +45 опасность
перегрева
1005.9 1003.6
12 15.08 ЮЗ 6 10 км 8/1 600 м
[Cu hum Ac lent Cs]
+29.8 +24.8 75 +43 +43 опасность
перегрева
1006.3 1003.9 +34.3
15 15.08 Ю 6 10 км 8/1 600 м
[Cu hum Ac lent Cs]
+29.2 +26.1 83 +44 +44 опасность
перегрева
1007.7 1005.3
18 15.08 ЮЗ 6 10 км 8/1 600 м
[Cu hum Ac lent Cs]
+29.1 +25.4 80 +42 +42 опасность
перегрева
1006.8 1004.4
21 15.08 ЮЗ 4 10 км 9/1 600 м
[Cu hum Ac lent Cs]
+28.4 +24.4 79 +40 +40 очень
душно
1006.4 1003.9
00 16.08 ЮЗ 3 10 км 9/3 600 м
[Cu hum Ac lent Cs]
+28.6 +24.9 80 +41 +41 опасность
перегрева
1006.9 1004.5 +27.8
03 16.08 Ю 6 10 км 9/1 600 м
[Cu hum Ac trans Cs]
+32.5 +25.2 65 +46 +49 опасность
перегрева
1007.9 1005.5
06 16.08 Ю 8 10 км 9/3 600 м
[Cu hum Cs]
+33.6 +25.0 61 +47 +50 опасность
перегрева
1007.0 1004.7
09 16.08 Ю 6 10 км 9/1 600 м
[Cu hum Cs]
+32.5 +24.7 64 +46 +48 опасность
перегрева
1005.4 1003.0
12 16.08 Ю 2 10 км 9/3 1000 м
[Sc Ac As Cs]
+29.5 +25.4 79 +43 +43 опасность
перегрева
1005.8 1003.4 +33.7
15 16.08 Ю 10 10 км зарница 9/3 300 м
[Cb cap Ac lent Cs]
+29.5 +26.0 81 +44 +44 опасность
перегрева
1008.1 1005.7
18 16.08 Ю 10 10 км {ливн. осадки} 9/3 300 м
[Cu Sc Ac As Cs]
+28.6 +24.4 78 +40 +40 очень
душно
1007.6 1005.2 0.0
21 16.08 ЮЗ 6 10 км 9/3 600 м
[Cu Sc Ac As Cs]
+28.6 +24.1 77 +40 +40 очень
душно
1007.0 1004.6
00 17.08 ЮЗ 6 10 км 9/3 600 м
[Cu Sc Ac As Cs]
+28.4 +24.5 79 +40 +40 очень
душно
1007.9 1005.5 +27.8
03 17.08 ЮЗ 10 10 км 9/3 600 м
[Cu Sc Ac lent Cs]
+31.0 +24.4 68 +43 +44 опасность
перегрева
1009.4 1007.0
06 17.08 ЮЗ 10 10 км 9/3 600 м
[Cu Sc Ac As Cs]
+31.0 +24.6 69 +44 +44 опасность
перегрева
1009.1 1006.7
09 17.08 Ю 4 10 км 9/3 300 м
[Cb cap Ac As Cs]
+30.2 +24.8 73 +43 +45 опасность
перегрева
1007.9 1005.5
12 17.08 Ю 4 10 км 9/3 600 м
[Cu Sc Ac As Cs]
+29.0 +24.6 77 +41 +41 опасность
перегрева
1008.6 1006.1 +33.6
15 17.08 ЮЗ 6 10 км 9/1 600 м
[Cu hum Ac lent Cs]
+28.5 +24.2 78 +40 +40 очень
душно
1010.3 1007.8
18 17.08 ЮЗ 4 10 км 9/4 600 м
[Cu Sc Ac lent Cs]
+28.1 +24.2 79 +39 +39 очень
душно
1009.6 1007.2
21 17.08 штиль 0 10 км 9/1 600 м
[Cu hum Ac trans Cs]
+26.7 +24.2 86 +37 +37 очень
душно
1009.4 1007.0
00 18.08 Ю 4 10 км 8/1 600 м
[Cu hum Ac lent Cs]
+27.0 +24.1 84 +37 +38 очень
душно
1010.8 1008.3 +26.0
03 18.08 Ю 6 10 км 8/3 600 м
[Cu hum Ac lent Cs]
+30.0 +27.2 85 +48 +50 опасность
перегрева
1011.9 1009.5
06 18.08 ЮЗ 4 10 км 8/3 600 м
[Cu med, cong Ac trans Cs]
+32.0 +25.7 69 +47 +53 опасность
перегрева
1010.6 1008.2
09 18.08 Ю 6 10 км 8/3 600 м
[Cu hum Ac trans Cs]
+30.0 +26.5 82 +46 +48 опасность
перегрева
1010.5 1008.1
12 18.08 ЮЗ 4 10 км 8/3 600 м
[Cu Sc Ac As Cs]
+30.0 +26.5 82 +46 +46 опасность
перегрева
1010.6 1008.2 +33.0
15 18.08 ЮЗ 4 10 км 6/1 600 м
[Cu hum Ac lent Cs]
+29.0 +25.5 81 +43 +43 опасность
перегрева
1011.6 1009.1
18 18.08 ЮЗ 2 10 км 6/1 600 м
[Cu hum Ac lent Cs]
+28.0 +24.4 81 +39 +39 очень
душно
1011.1 1008.7
21 18.08 ЮЗ 4 10 км 8/1 600 м
[Cu hum Ac As Cs]
+27.5 +24.6 84 +39 +39 очень
душно
1010.4 1008.0
00 19.08 ЮЗ 4 10 км 6/1 600 м
[Cu hum Ac lent Cs]
+28.5 +24.2 78 +40 +40 очень
душно
1010.8 1008.4 +25.0
03 19.08 ЮЗ 6 10 км 6/1 600 м
[Cu hum Ac trans Cs]
+33.3 +23.9 58 +45 +49 опасность
перегрева
1010.9 1008.5
06 19.08 ЮЗ 10 10 км 4/1 600 м
[Cu hum Ac lent Ci sp]
+33.6 +23.4 55 +44 +45 опасность
перегрева
1009.1 1006.7
09 19.08 ЮЗ 8 10 км 4/1 600 м
[Cu hum Ac lent Cs]
+34.2 +22.9 52 +44 +45 опасность
перегрева
1007.9 1005.5
12 19.08 ЮЗ 6 10 км 8/1 600 м
[Cu hum Ac lent Cs]
+30.0 +24.3 72 +42 +42 опасность
перегрева
1008.3 1005.9 +34.4

 

Местоположение метеостанции Саттахип (Таиланд): широта 12.68 долгота 100.98 высота над уровнем моря 18 м.

В архиве по умолчанию представлена погода в Саттахипе за последнюю неделю. Архивные данные за месяц целиком и за предыдущие месяцы, начиная с января 2011 года, Вы можете получить, выбрав интересующий диапазон дат из раскрывающегося списка и нажав кнопку "Ввод!".


*Определитесь, кто Вы:
робот инопланетянин человек

Внимание! Время в таблицах - всемирное. Для получения местного времени необходимо прибавить поправку, которая равна 7 ч.

Смотрите также архив погоды в соседних городах и на ближайших метеорологических станциях:

Погода в Хуайпонг Агромете (Таиланд) (17 км)
Погода в Паттайе (Таиланд) (30 км)
Погода в Районге (Таиланд) (41 км)
Погода на Ко Сичан (Таиланд) (58 км)
Погода в Чонбури (Таиланд) (77 км)
Погода в Ратбури (Таиланд) (77 км)
Погода в Бангкок Пилот (Таиланд) (88 км)
Погода в Самутрудкан Агромете (Таиланд) (97 км)
Погода в Чаченгсау (Таиланд) (104 км)
Погода в Хуахине (Таиланд) (112 км)

Пояснения к столбцам:

Ветер - указаны скорость ветра в м/с - средняя за 10 мин, порывы в срок и между сроками (в фигурных скобках) и направление, откуда дует ветер: С - северный, СВ - северо-восточный, В - восточный, ЮВ - юго-восточный, Ю - южный, ЮЗ - юго-западный, З - западный, СЗ - северо-западный.
Видимость - горизонтальная дальность видимости в метрах или километрах. При видимости от 1 до 10 км при отсутствии осадков обычно наблюдается дымка, при ухудшении видимости до 1 км и менее - туман. В сухую погоду видимость может ухудшаться дымом, пылью или мглою.
Явления - указаны атмосферные явления, наблюдавшиеся в срок или в последний час перед сроком; фигурными скобками обозначены явления, наблюдавшиеся между сроками (за 1-3 часа до срока); квадратными скобками обозначены град или гололедные отложения с указанием их диаметра в мм.
Облачность - указаны через наклонную черту общая и нижняя облачность в баллах и высота нижней границы облаков в метрах; квадратными скобками обозначены формы облаков: Ci - перистые, Cs - перисто-слоистые, Cc - перисто-кучевые, Ac - высококучевые, As - высокослоистые, Sc - слоисто-кучевые, Ns - слоисто-дождевые, Cu - кучевые, Cb - кучево-дождевые. Подробнее классификацию облаков см. в Атласе облаков (PDF).
T - Температура воздуха - температура, измеренная на высоте 2 м над землей.
Td - Температура точки росы - температура, при понижении до которой содержащийся в воздухе водяной пар достигнет насыщения.
f - Относительная влажность воздуха - влажноcть воздуха, измеренная на высоте 2 м над землей.
Te - Эффективная температура - температура, которую ощущает одетый по сезону человек в тени. Характеристика душности погоды. При расчете учитывается влияние влажности воздуха и скорости ветра на теплоощущения человека.
Tes - Эффективная температура на солнце - температура, которую ощущает человек, с поправкой на солнечный нагрев. Характеристика знойности погоды. Зависит от высоты солнца над горизонтом, облачности и скорости ветра. Ночью, в пасмурную погоду, а также при ветре 12 м/с и более поправка равна нулю.
P - Атмосферное давление - приведенное к уровню моря атмосферное давление.
Po - Атмосферное давление - измеренное на уровне метеостанции атмосферное давление.
Tmin - Минимальная температура - минимум температуры воздуха на высоте 2 м над землей.
Tmax - Максимальная температура - максимум температуры воздуха на высоте 2 м над землей.
R - Количество осадков - Количество выпавших осадков за период времени, мм. При наведении курсора мыши на число - период времени, за который выпало указанное количество осадков.
R24 - Количество осадков - Количество выпавших осадков за 24 часа, мм.
S - Снежный покров - Высота снежного покрова, см. При наведении курсора мыши на число - состояние снежного покрова и степень покрытия местности в баллах.